Little Falls, MN

6:02 PM CDT on March 26, 2017 (GMT -0500)
Little Falls-Morrison County

Weather History for KLXL - March, 2013

Change the Weather History Date:

Wednesday, March 6, 2013

  Actual Average Record
Temperature  
Mean Temperature 14 °F -  
Max Temperature 26 °F 36 °F 71 °F (1987)
Min Temperature 3 °F 11 °F -22 °F (1955)
Degree Days  
Heating Degree Days 50    
Moisture  
Dew Point 13 °F    
Average Humidity 77    
Maximum Humidity 92    
Minimum Humidity 59    
Precipitation  
Precipitation 0.00 in - - ()
Sea Level Pressure  
Sea Level Pressure 30.35 in    
Wind  
Wind Speed 2 mph (NNW)    
Max Wind Speed 9 mph    
Max Gust Speed -    
Visibility 10 miles    
Events Snow    
Averages and records for this station are not official NWS values.
T = Trace of Precipitation, MM = Missing Value Source: NWS Daily Summary

Daily Weather History Graph

Daily Weather History Graph

Search for Another Location

Airport or City:

Trip Planner

Search our weather history database for the weather conditions in past years. The results will help you decide how hot, cold, wet, or windy it might be!

Date:

Astronomy

Mar. 06, 2013 Rise Set
Actual Time 6:46 AM CST 6:11 PM CST
Civil Twilight 6:16 AM CST 6:41 PM CST
Nautical Twilight 5:42 AM CST 7:15 PM CST
Astronomical Twilight 5:07 AM CST 7:50 PM CST
Moon 3:09 AM CST (3/6) 12:40 PM CST (3/6)
Length of Visible Light 12h 24m
Length of Day
11h 24m
Waning Crescent, 29% of the Moon is Illuminated
Mar 6
Waning Crescent
Mar 11
New
Mar 19
First Quarter
Mar 27
Full
Apr 2
Last Quarter

Hourly Weather History & Observations

Time (CST) Temp. Windchill Dew Point Humidity Pressure Visibility Wind Dir Wind Speed Gust Speed Precip Events Conditions
12:15 AM 23.0 °F - 19.4 °F 86% 30.32 in 10.0 mi Calm Calm - N/A   Overcast
12:35 AM 23.0 °F 18.4 °F 17.6 °F 80% 30.32 in 10.0 mi North 3.5 mph - N/A   Overcast
12:54 AM 23.0 °F - 17.6 °F 80% 30.33 in 10.0 mi Calm Calm - N/A   Overcast
1:15 AM 23.0 °F 13.1 °F 17.6 °F 80% 30.34 in 10.0 mi NNW 9.2 mph - N/A   Overcast
1:35 AM 23.0 °F 18.4 °F 17.6 °F 80% 30.34 in 10.0 mi North 3.5 mph - N/A   Overcast
1:54 AM 23.0 °F 18.4 °F 17.6 °F 80% 30.34 in 10.0 mi North 3.5 mph - N/A   Overcast
2:15 AM 23.0 °F 18.4 °F 15.8 °F 74% 30.33 in 10.0 mi North 3.5 mph - N/A   Overcast
2:35 AM 23.0 °F - 15.8 °F 74% 30.33 in 10.0 mi Calm Calm - N/A   Overcast
2:54 AM 23.0 °F - 17.6 °F 80% 30.34 in 10.0 mi Calm Calm - N/A   Overcast
3:15 AM 23.0 °F 18.4 °F 17.6 °F 80% 30.34 in 10.0 mi NNW 3.5 mph - N/A   Overcast
3:35 AM 23.0 °F 18.4 °F 17.6 °F 80% 30.34 in 10.0 mi NNW 3.5 mph - N/A   Overcast
3:54 AM 23.0 °F 18.4 °F 17.6 °F 80% 30.34 in 10.0 mi NW 3.5 mph - N/A   Overcast
4:15 AM 23.0 °F 17.0 °F 17.6 °F 80% 30.33 in 10.0 mi NW 4.6 mph - N/A   Overcast
4:35 AM 23.0 °F 18.4 °F 15.8 °F 74% 30.34 in 10.0 mi NW 3.5 mph - N/A   Overcast
4:55 AM 21.2 °F 13.6 °F 15.8 °F 80% 30.35 in 10.0 mi NW 5.8 mph - N/A   Overcast
5:15 AM 21.2 °F 16.4 °F 15.8 °F 80% 30.36 in 10.0 mi NNW 3.5 mph - N/A   Overcast
5:35 AM 21.2 °F - 15.8 °F 80% 30.36 in 10.0 mi Calm Calm - N/A   Overcast
5:55 AM 21.2 °F - 15.8 °F 80% 30.36 in 10.0 mi Calm Calm - N/A   Overcast
6:15 AM 21.2 °F 14.9 °F 15.8 °F 80% 30.37 in 10.0 mi NW 4.6 mph - N/A   Overcast
6:35 AM 21.2 °F 16.4 °F 15.8 °F 80% 30.38 in 10.0 mi NNW 3.5 mph - N/A   Overcast
6:55 AM 21.2 °F 14.9 °F 15.8 °F 80% 30.38 in 10.0 mi NNW 4.6 mph - N/A Snow Light Snow
7:15 AM 19.4 °F 10.4 °F 15.8 °F 86% 30.39 in 10.0 mi WNW 6.9 mph - N/A   Overcast
7:35 AM 19.4 °F 9.5 °F 14.0 °F 80% 30.40 in 10.0 mi WNW 8.1 mph - N/A   Overcast
7:55 AM 19.4 °F 12.8 °F 14.0 °F 80% 30.40 in 10.0 mi NNW 4.6 mph - N/A   Overcast
8:15 AM 19.4 °F 12.8 °F 14.0 °F 80% 30.40 in 10.0 mi WNW 4.6 mph - N/A   Overcast
8:35 AM 19.4 °F - 14.0 °F 80% 30.40 in 10.0 mi Calm Calm - N/A Snow Light Snow
8:55 AM 19.4 °F 11.5 °F 14.0 °F 80% 30.40 in 10.0 mi NW 5.8 mph - N/A   Overcast
9:15 AM 19.4 °F 11.5 °F 14.0 °F 80% 30.40 in 7.0 mi NW 5.8 mph - N/A Snow Light Snow
9:35 AM 19.4 °F 10.4 °F 14.0 °F 80% 30.40 in 10.0 mi WNW 6.9 mph - N/A   Overcast
9:55 AM 19.4 °F 14.3 °F 14.0 °F 80% 30.41 in 10.0 mi NNW 3.5 mph - N/A   Overcast
10:15 AM 21.2 °F 14.9 °F 14.0 °F 74% 30.40 in 10.0 mi NW 4.6 mph - N/A   Mostly Cloudy
10:35 AM 21.2 °F - 14.0 °F 74% 30.40 in 10.0 mi Calm Calm - N/A   Scattered Clouds
10:55 AM 21.2 °F 14.9 °F 14.0 °F 74% 30.39 in 10.0 mi North 4.6 mph - N/A   Scattered Clouds
11:14 AM 21.2 °F 16.4 °F 14.0 °F 74% 30.39 in 10.0 mi NNW 3.5 mph - N/A   Mostly Cloudy
11:35 AM 21.2 °F 13.6 °F 14.0 °F 74% 30.39 in 10.0 mi NNW 5.8 mph - N/A   Overcast
11:55 AM 21.2 °F - 14.0 °F 74% 30.38 in 10.0 mi Calm Calm - N/A   Overcast
12:14 PM 21.2 °F 14.9 °F 14.0 °F 74% 30.38 in 10.0 mi NE 4.6 mph - N/A   Overcast
12:35 PM 21.2 °F - 14.0 °F 74% 30.38 in 10.0 mi Calm Calm - N/A   Overcast
12:55 PM 23.0 °F 17.0 °F 14.0 °F 68% 30.37 in 10.0 mi ENE 4.6 mph - N/A   Overcast
1:14 PM 23.0 °F 17.0 °F 14.0 °F 68% 30.36 in 10.0 mi ENE 4.6 mph - N/A   Overcast
1:35 PM 23.0 °F - 14.0 °F 68% 30.36 in 10.0 mi Calm Calm - N/A   Overcast
1:55 PM 23.0 °F 17.0 °F 14.0 °F 68% 30.35 in 10.0 mi ESE 4.6 mph - N/A   Overcast
2:14 PM 24.8 °F 20.5 °F 14.0 °F 64% 30.35 in 10.0 mi SSE 3.5 mph - N/A   Mostly Cloudy
2:35 PM 24.8 °F - 14.0 °F 64% 30.34 in 10.0 mi Calm Calm - N/A   Mostly Cloudy
2:54 PM 24.8 °F - 14.0 °F 64% 30.34 in 10.0 mi Calm Calm - N/A   Mostly Cloudy
3:15 PM 24.8 °F - 14.0 °F 64% 30.33 in 10.0 mi Calm Calm - N/A   Mostly Cloudy
3:35 PM 26.6 °F - 14.0 °F 59% 30.33 in 10.0 mi Calm Calm - N/A   Mostly Cloudy
3:54 PM 24.8 °F - 14.0 °F 64% 30.33 in 10.0 mi Calm Calm - N/A   Scattered Clouds
4:15 PM 26.6 °F - 14.0 °F 59% 30.33 in 10.0 mi Calm Calm - N/A   Clear
4:35 PM 26.6 °F - 14.0 °F 59% 30.33 in 10.0 mi Calm Calm - N/A   Clear
4:54 PM 24.8 °F - 14.0 °F 64% 30.33 in 10.0 mi Calm Calm - N/A   Clear
5:15 PM 23.0 °F 18.4 °F 14.0 °F 68% 30.33 in 10.0 mi SSW 3.5 mph - N/A   Clear
5:35 PM 23.0 °F - 14.0 °F 68% 30.33 in 10.0 mi Calm Calm - N/A   Clear
5:54 PM 21.2 °F - 12.2 °F 68% 30.33 in 10.0 mi Calm Calm - N/A   Clear
6:15 PM 19.4 °F - 12.2 °F 74% 30.32 in 10.0 mi Calm Calm - N/A   Clear
6:35 PM 17.6 °F - 10.4 °F 73% 30.33 in 10.0 mi Calm Calm - N/A   Clear
6:55 PM 17.6 °F - 12.2 °F 79% 30.33 in 10.0 mi Calm Calm - N/A   Clear
7:15 PM 17.6 °F - 12.2 °F 79% 30.33 in 10.0 mi Calm Calm - N/A   Clear
7:35 PM 15.8 °F - 12.2 °F 86% 30.33 in 10.0 mi Calm Calm - N/A   Clear
7:55 PM 12.2 °F - 8.6 °F 85% 30.33 in 10.0 mi Calm Calm - N/A   Clear
8:15 PM 12.2 °F - 8.6 °F 85% 30.33 in 10.0 mi Calm Calm - N/A   Clear
8:35 PM 10.4 °F - 6.8 °F 85% 30.33 in 7.0 mi Calm Calm - N/A   Clear
8:55 PM 10.4 °F - 6.8 °F 85% 30.33 in 10.0 mi Calm Calm - N/A   Clear
9:15 PM 8.6 °F - 3.2 °F 79% 30.33 in 10.0 mi Calm Calm - N/A   Clear
9:35 PM 8.6 °F - 5.0 °F 85% - 10.0 mi Calm Calm - N/A   Clear
9:55 PM 5.0 °F - 1.4 °F 85% 30.34 in 10.0 mi Calm Calm - N/A   Clear
10:15 PM 5.0 °F - 3.2 °F 92% 30.34 in 7.0 mi Calm Calm - N/A   Clear
10:35 PM 3.2 °F - -0.4 °F 85% 30.34 in 7.0 mi Calm Calm - N/A   Clear
10:55 PM 3.2 °F - -0.4 °F 85% 30.35 in 10.0 mi Calm Calm - N/A   Clear
11:15 PM 5.0 °F - 1.4 °F 85% 30.34 in 10.0 mi Calm Calm - N/A   Clear
11:35 PM 3.2 °F - -2.2 °F 78% 30.33 in 4.0 mi Calm Calm - N/A   Haze
11:55 PM 3.2 °F - -0.4 °F 85% 30.34 in 7.0 mi Calm Calm - N/A   Clear